| time (UTC) | temp C | wind direction | speed KPH | gust KPH | rain 1hr cm | rain 24hr cm | rain mn cm | humidity % | barometer mb |
| 20260504004503 | 13 | 114 | 0.0 | 11.3 | 0.00 | 0.00 | 0.00 | 58 | 1012.2 |
| 20260504004003 | 13 | 72 | 1.6 | 6.4 | 0.00 | 0.00 | 0.00 | 59 | 1012.2 |
| 20260504003509 | 13 | 21 | 3.2 | 3.2 | 0.00 | 0.00 | 0.00 | 59 | 1012.2 |
| 20260504003003 | 13 | 21 | 1.6 | 1.6 | 0.00 | 0.00 | 0.00 | 59 | 1012.2 |
| 20260504002507 | 13 | 21 | 0.0 | 1.6 | 0.00 | 0.00 | 0.00 | 59 | 1012.3 |
| 20260504002004 | 13 | 21 | 0.0 | 1.6 | 0.00 | 0.00 | 0.00 | 60 | 1012.2 |
| 20260504001508 | 12 | 21 | 3.2 | 3.2 | 0.00 | 0.00 | 0.00 | 60 | 1012.2 |
| 20260504001003 | 13 | 21 | 0.0 | 1.6 | 0.00 | 0.00 | 0.00 | 61 | 1012.3 |
| 20260504000503 | 13 | 21 | 1.6 | 4.8 | 0.00 | 0.00 | 0.00 | 58 | 1012.1 |
| 20260504000005 | 13 | 21 | 1.6 | 1.6 | 0.00 | 0.00 | 0.00 | 57 | 1011.9 |
| 20260503235506 | 14 | 90 | 1.6 | 4.8 | 0.00 | 0.00 | 0.00 | 56 | 1011.6 |
| 20260503235010 | 14 | 70 | 0.0 | 3.2 | 0.00 | 0.00 | 0.00 | 56 | 1011.7 |
| 20260503234504 | 14 | 70 | 1.6 | 3.2 | 0.00 | 0.00 | 0.00 | 55 | 1011.6 |
| 20260503234008 | 15 | 70 | 3.2 | 3.2 | 0.00 | 0.00 | 0.00 | 54 | 1011.6 |
| 20260503233510 | 15 | 78 | 0.0 | 6.4 | 0.00 | 0.00 | 0.00 | 54 | 1011.5 |
| 20260503233002 | 15 | 82 | 1.6 | 9.7 | 0.00 | 0.00 | 0.00 | 54 | 1011.4 |
| 20260503232505 | 15 | 53 | 0.0 | 9.7 | 0.00 | 0.00 | 0.00 | 54 | 1011.4 |
| 20260503232002 | 15 | 60 | 3.2 | 6.4 | 0.00 | 0.00 | 0.00 | 53 | 1011.4 |
| 20260503231505 | 15 | 78 | 0.0 | 6.4 | 0.00 | 0.00 | 0.00 | 53 | 1011.6 |
| 20260503231006 | 15 | 64 | 1.6 | 11.3 | 0.00 | 0.00 | 0.00 | 52 | 1011.4 |
| 20260503230503 | 15 | 72 | 0.0 | 8.0 | 0.00 | 0.00 | 0.00 | 53 | 1011.6 |
| 20260503230008 | 15 | 108 | 0.0 | 9.7 | 0.00 | 0.00 | 0.00 | 52 | 1011.6 |
| 20260503225503 | 15 | 69 | 1.6 | 12.9 | 0.00 | 0.00 | 0.00 | 52 | 1011.5 |
| 20260503225007 | 15 | 105 | 0.0 | 19.3 | 0.00 | 0.00 | 0.00 | 51 | 1011.4 |
| 20260503224505 | 15 | 114 | 3.2 | 20.9 | 0.00 | 0.00 | 0.00 | 51 | 1011.5 |
| 20260503224009 | 15 | 92 | 1.6 | 12.9 | 0.00 | 0.00 | 0.00 | 51 | 1011.5 |
| 20260503223504 | 15 | 90 | 3.2 | 8.0 | 0.00 | 0.00 | 0.00 | 51 | 1011.4 |
| 20260503223005 | 15 | 114 | 1.6 | 14.5 | 0.00 | 0.00 | 0.00 | 51 | 1011.5 |
| 20260503222507 | 16 | 114 | 8.0 | 11.3 | 0.00 | 0.00 | 0.00 | 51 | 1011.6 |
| 20260503222008 | 16 | 31 | 3.2 | 12.9 | 0.00 | 0.00 | 0.00 | 51 | 1011.4 |
| 20260503221506 | 16 | 104 | 3.2 | 19.3 | 0.00 | 0.00 | 0.00 | 50 | 1011.5 |
| 20260503221009 | 16 | 96 | 8.0 | 8.0 | 0.00 | 0.00 | 0.00 | 50 | 1011.5 |
| 20260503220505 | 16 | 120 | 8.0 | 16.1 | 0.00 | 0.00 | 0.00 | 49 | 1011.6 |
| 20260503220015 | 16 | 133 | 8.0 | 14.5 | 0.00 | 0.00 | 0.00 | 50 | 1011.6 |
| 20260503215503 | 16 | 126 | 6.4 | 14.5 | 0.00 | 0.00 | 0.00 | 51 | 1011.6 |
| 20260503215007 | 16 | 64 | 1.6 | 14.5 | 0.00 | 0.00 | 0.00 | 50 | 1011.7 |
| 20260503214504 | 16 | 114 | 0.0 | 14.5 | 0.00 | 0.00 | 0.00 | 50 | 1011.6 |
| 20260503214007 | 16 | 48 | 14.5 | 17.7 | 0.00 | 0.00 | 0.00 | 49 | 1011.6 |
| 20260503213502 | 16 | 102 | 8.0 | 11.3 | 0.00 | 0.00 | 0.00 | 49 | 1011.5 |
| 20260503213004 | 16 | 93 | 3.2 | 14.5 | 0.00 | 0.00 | 0.00 | 49 | 1011.6 |
| 20260503212002 | 16 | 66 | 4.8 | 16.1 | 0.00 | 0.00 | 0.00 | 49 | 1011.7 |
| 20260503211003 | 16 | 114 | 4.8 | 14.5 | 0.00 | 0.00 | 0.00 | 49 | 1011.7 |
| 20260503210504 | 16 | 78 | 0.0 | 9.7 | 0.00 | 0.00 | 0.00 | 49 | 1011.8 |
| 20260503210005 | 16 | 121 | 3.2 | 9.7 | 0.00 | 0.00 | 0.00 | 49 | 1011.9 |
| 20260503205504 | 16 | 76 | 4.8 | 14.5 | 0.00 | 0.00 | 0.00 | 48 | 1011.9 |
| 20260503205003 | 16 | 127 | 1.6 | 19.3 | 0.00 | 0.00 | 0.00 | 48 | 1011.9 |
| 20260503204510 | 16 | 102 | 8.0 | 16.1 | 0.00 | 0.00 | 0.00 | 48 | 1012.1 |
| 20260503204003 | 17 | 64 | 3.2 | 14.5 | 0.00 | 0.00 | 0.00 | 48 | 1011.9 |
| 20260503203504 | 17 | 120 | 3.2 | 12.9 | 0.00 | 0.00 | 0.00 | 47 | 1012.0 |
| 20260503203009 | 17 | 96 | 11.3 | 12.9 | 0.00 | 0.00 | 0.00 | 47 | 1012.0 |
| 20260503202502 | 17 | 116 | 3.2 | 14.5 | 0.00 | 0.00 | 0.00 | 47 | 1012.0 |
| 20260503202003 | 17 | 64 | 3.2 | 14.5 | 0.00 | 0.00 | 0.00 | 47 | 1011.8 |
| 20260503201504 | 17 | 108 | 12.9 | 22.5 | 0.00 | 0.00 | 0.00 | 46 | 1012.1 |
| 20260503201003 | 17 | 105 | 9.7 | 19.3 | 0.00 | 0.00 | 0.00 | 47 | 1012.0 |
| 20260503200503 | 17 | 82 | 3.2 | 3.2 | 0.00 | 0.00 | 0.00 | 47 | 1012.0 |
| 20260503200003 | 17 | 104 | 1.6 | 4.8 | 0.00 | 0.00 | 0.00 | 47 | 1012.0 |
| 20260503195509 | 17 | 114 | 0.0 | 3.2 | 0.00 | 0.00 | 0.00 | 47 | 1012.0 |
| 20260503195005 | 17 | 84 | 12.9 | 12.9 | 0.00 | 0.00 | 0.00 | 46 | 1012.0 |
| 20260503194504 | 17 | 128 | 9.7 | 11.3 | 0.00 | 0.00 | 0.00 | 47 | 1012.0 |
| 20260503194008 | 17 | 72 | 4.8 | 12.9 | 0.00 | 0.00 | 0.00 | 46 | 1012.0 |
| 20260503193505 | 17 | 90 | 3.2 | 3.2 | 0.00 | 0.00 | 0.00 | 47 | 1012.0 |
| 20260503193010 | 17 | 121 | 14.5 | 14.5 | 0.00 | 0.00 | 0.00 | 46 | 1012.0 |
| 20260503192503 | 17 | 78 | 3.2 | 3.2 | 0.00 | 0.00 | 0.00 | 46 | 1012.1 |
| 20260503192007 | 17 | 54 | 0.0 | 0.0 | 0.00 | 0.00 | 0.00 | 47 | 1012.0 |
| 20260503191504 | 17 | 54 | 0.0 | 3.2 | 0.00 | 0.00 | 0.00 | 46 | 1011.8 |
| 20260503191003 | 17 | 156 | 0.0 | 1.6 | 0.00 | 0.00 | 0.00 | 46 | 1012.0 |
| 20260503190503 | 18 | 156 | 0.0 | 1.6 | 0.00 | 0.00 | 0.00 | 46 | 1011.9 |
| 20260503190004 | 18 | 156 | 9.7 | 11.3 | 0.00 | 0.00 | 0.00 | 45 | 1011.7 |
| 20260503185509 | 18 | 96 | 0.0 | 6.4 | 0.00 | 0.00 | 0.00 | 46 | 1011.7 |
| 20260503185003 | 18 | 84 | 6.4 | 12.9 | 0.00 | 0.00 | 0.00 | 45 | 1011.7 |
| 20260503184506 | 18 | 102 | 0.0 | 14.5 | 0.00 | 0.00 | 0.00 | 45 | 1011.6 |
| 20260503184003 | 18 | 111 | 3.2 | 9.7 | 0.00 | 0.00 | 0.00 | 44 | 1011.4 |
| 20260503183507 | 18 | 122 | 4.8 | 16.1 | 0.00 | 0.00 | 0.00 | 44 | 1011.5 |
| 20260503183003 | 19 | 138 | 12.9 | 16.1 | 0.00 | 0.00 | 0.00 | 43 | 1011.4 |
| 20260503182505 | 18 | 110 | 0.0 | 4.8 | 0.00 | 0.00 | 0.00 | 43 | 1011.3 |
| 20260503182006 | 19 | 94 | 0.0 | 6.4 | 0.00 | 0.00 | 0.00 | 44 | 1011.1 |
| 20260503181504 | 19 | 132 | 0.0 | 12.9 | 0.00 | 0.00 | 0.00 | 43 | 1011.0 |
| 20260503181004 | 20 | 109 | 0.0 | 16.1 | 0.00 | 0.00 | 0.00 | 42 | 1010.9 |
| 20260503180503 | 20 | 42 | 9.7 | 19.3 | 0.00 | 0.00 | 0.00 | 43 | 1010.9 |
| 20260503180002 | 20 | 76 | 3.2 | 3.2 | 0.00 | 0.00 | 0.00 | 42 | 1010.9 |
| 20260503175503 | 20 | 120 | 0.0 | 8.0 | 0.00 | 0.00 | 0.00 | 42 | 1011.0 |
| 20260503175004 | 20 | 122 | 9.7 | 12.9 | 0.00 | 0.00 | 0.00 | 41 | 1010.8 |
| 20260503174505 | 20 | 138 | 6.4 | 8.0 | 0.00 | 0.00 | 0.00 | 41 | 1010.8 |
| 20260503174008 | 21 | 88 | 0.0 | 12.9 | 0.00 | 0.00 | 0.00 | 40 | 1010.8 |
| 20260503173503 | 21 | 162 | 3.2 | 14.5 | 0.00 | 0.00 | 0.00 | 40 | 1010.8 |
| 20260503173005 | 21 | 96 | 6.4 | 9.7 | 0.00 | 0.00 | 0.00 | 40 | 1010.9 |
| 20260503172504 | 21 | 103 | 9.7 | 12.9 | 0.00 | 0.00 | 0.00 | 39 | 1010.7 |
| 20260503172004 | 21 | 132 | 3.2 | 17.7 | 0.00 | 0.00 | 0.00 | 39 | 1010.6 |
| 20260503171502 | 22 | 71 | 3.2 | 14.5 | 0.00 | 0.00 | 0.00 | 38 | 1010.7 |
| 20260503171003 | 22 | 191 | 1.6 | 11.3 | 0.00 | 0.00 | 0.00 | 38 | 1010.6 |
| 20260503170504 | 22 | 132 | 9.7 | 14.5 | 0.00 | 0.00 | 0.00 | 38 | 1010.6 |
| 20260503151006 | 24 | 139 | 11.3 | 17.7 | 0.00 | 0.00 | 0.00 | 28 | 1010.6 |
| 20260503150503 | 24 | 113 | 8.0 | 20.9 | 0.00 | 0.00 | 0.00 | 29 | 1010.6 |
| 20260503131003 | 24 | 182 | 11.3 | 17.7 | 0.00 | 0.00 | 0.00 | 29 | 1012.0 |
| 20260503130504 | 24 | 150 | 11.3 | 12.9 | 0.00 | 0.00 | 0.00 | 32 | 1012.0 |
| 20260503110505 | 22 | 162 | 6.4 | 19.3 | 0.00 | 0.00 | 0.00 | 37 | 1013.6 |
| 20260503090503 | 19 | 132 | 3.2 | 14.5 | 0.00 | 0.00 | 0.00 | 43 | 1015.3 |
| 20260503081503 | 18 | 122 | 14.5 | 14.5 | 0.00 | 0.00 | 0.00 | 44 | 1015.6 |
| 20260503081003 | 18 | 49 | 4.8 | 19.3 | 0.00 | 0.00 | 0.00 | 44 | 1015.8 |
| 20260503080504 | 18 | 97 | 6.4 | 8.0 | 0.00 | 0.00 | 0.00 | 45 | 1015.8 |
| 20260503072504 | 17 | 120 | 8.0 | 19.3 | 0.00 | 0.00 | 0.00 | 46 | 1016.0 |
| 20260503072004 | 17 | 100 | 9.7 | 14.5 | 0.00 | 0.00 | 0.00 | 47 | 1016.0 |
| 20260503071504 | 16 | 120 | 14.5 | 14.5 | 0.00 | 0.00 | 0.00 | 47 | 1016.1 |
| 20260503071003 | 16 | 102 | 1.6 | 11.3 | 0.00 | 0.00 | 0.00 | 47 | 1016.1 |
| 20260503070505 | 16 | 60 | 3.2 | 14.5 | 0.00 | 0.00 | 0.00 | 47 | 1016.2 |
| 20260503055004 | 13 | 42 | 1.6 | 3.2 | 0.00 | 0.00 | 0.00 | 55 | 1016.8 |
| 20260503054503 | 13 | 38 | 0.0 | 0.0 | 0.00 | 0.00 | 0.00 | 58 | 1016.8 |
| 20260503054006 | 12 | 38 | 0.0 | 0.0 | 0.00 | 0.00 | 0.00 | 60 | 1016.8 |
| 20260503053506 | 11 | 38 | 0.0 | 0.0 | 0.00 | 0.00 | 0.00 | 63 | 1017.0 |
| 20260503053004 | 11 | 38 | 0.0 | 3.2 | 0.00 | 0.00 | 0.00 | 65 | 1017.1 |
| 20260503052504 | 11 | 38 | 1.6 | 3.2 | 0.00 | 0.00 | 0.00 | 70 | 1017.1 |
| 20260503052009 | 10 | 38 | 3.2 | 4.8 | 0.00 | 0.00 | 0.00 | 70 | 1017.2 |
| 20260503051503 | 10 | 38 | 1.6 | 3.2 | 0.00 | 0.00 | 0.00 | 68 | 1017.2 |
| 20260503051003 | 10 | 38 | 1.6 | 1.6 | 0.00 | 0.00 | 0.00 | 69 | 1017.2 |
| 20260503050504 | 9 | 38 | 0.0 | 0.0 | 0.00 | 0.00 | 0.00 | 71 | 1017.5 |
| 20260503050011 | 8 | 38 | 0.0 | 1.6 | 0.00 | 0.00 | 0.00 | 71 | 1017.5 |
| 20260503045504 | 8 | 38 | 0.0 | 0.0 | 0.00 | 0.00 | 0.00 | 72 | 1017.5 |
| 20260503045009 | 8 | 38 | 1.6 | 3.2 | 0.00 | 0.00 | 0.00 | 71 | 1017.6 |
| 20260503044503 | 7 | 38 | 1.6 | 4.8 | 0.00 | 0.00 | 0.00 | 72 | 1017.8 |
| 20260503044003 | 7 | 38 | 3.2 | 3.2 | 0.00 | 0.00 | 0.00 | 74 | 1017.8 |
| 20260503043504 | 6 | 38 | 0.0 | 0.0 | 0.00 | 0.00 | 0.00 | 75 | 1017.9 |
| 20260503043009 | 6 | 38 | 0.0 | 0.0 | 0.00 | 0.00 | 0.00 | 80 | 1018.1 |
| 20260503042504 | 6 | 38 | 0.0 | 0.0 | 0.00 | 0.00 | 0.00 | 81 | 1018.1 |
| 20260503042002 | 6 | 38 | 0.0 | 0.0 | 0.00 | 0.00 | 0.00 | 80 | 1018.1 |
| 20260503041504 | 6 | 38 | 0.0 | 0.0 | 0.00 | 0.00 | 0.00 | 78 | 1018.0 |
| 20260503041002 | 6 | 38 | 0.0 | 0.0 | 0.00 | 0.00 | 0.00 | 77 | 1018.2 |
| 20260503040502 | 5 | 38 | 0.0 | 0.0 | 0.00 | 0.00 | 0.00 | 78 | 1018.1 |
| 20260503040005 | 5 | 38 | 0.0 | 0.0 | 0.00 | 0.00 | 0.00 | 79 | 1018.1 |
| 20260503035504 | 5 | 38 | 0.0 | 0.0 | 0.00 | 0.00 | 0.00 | 78 | 1018.2 |
| 20260503035004 | 6 | 38 | 0.0 | 0.0 | 0.00 | 0.00 | 0.00 | 82 | 1018.2 |
| 20260503034508 | 5 | 38 | 0.0 | 0.0 | 0.00 | 0.00 | 0.00 | 78 | 1018.2 |
| 20260503034004 | 6 | 42 | 0.0 | 0.0 | 0.00 | 0.00 | 0.00 | 79 | 1018.1 |
| 20260503033507 | 6 | 42 | 0.0 | 0.0 | 0.00 | 0.00 | 0.00 | 79 | 1017.9 |
| 20260503033003 | 6 | 38 | 0.0 | 0.0 | 0.00 | 0.00 | 0.00 | 82 | 1018.0 |
| 20260503032509 | 6 | 38 | 0.0 | 0.0 | 0.00 | 0.00 | 0.00 | 81 | 1018.1 |
| 20260503032005 | 6 | 38 | 0.0 | 0.0 | 0.00 | 0.00 | 0.00 | 80 | 1018.0 |
| 20260503031508 | 6 | 42 | 0.0 | 0.0 | 0.00 | 0.00 | 0.00 | 78 | 1018.0 |
| 20260503031004 | 5 | 38 | 0.0 | 1.6 | 0.00 | 0.00 | 0.00 | 81 | 1018.1 |
| 20260503030507 | 6 | 38 | 1.6 | 3.2 | 0.00 | 0.00 | 0.00 | 79 | 1018.1 |
| 20260503030003 | 6 | 38 | 0.0 | 3.2 | 0.00 | 0.00 | 0.00 | 80 | 1017.9 |
| 20260503025509 | 6 | 38 | 0.0 | 1.6 | 0.00 | 0.00 | 0.00 | 79 | 1018.0 |
| 20260503025003 | 6 | 38 | 1.6 | 3.2 | 0.00 | 0.00 | 0.00 | 76 | 1018.1 |
| 20260503024508 | 6 | 38 | 1.6 | 3.2 | 0.00 | 0.00 | 0.00 | 76 | 1017.9 |
| 20260503024003 | 6 | 38 | 1.6 | 3.2 | 0.00 | 0.00 | 0.00 | 75 | 1017.9 |
| 20260503023503 | 6 | 38 | 0.0 | 4.8 | 0.00 | 0.00 | 0.00 | 74 | 1018.0 |
| 20260503023003 | 6 | 42 | 1.6 | 6.4 | 0.00 | 0.00 | 0.00 | 74 | 1018.0 |
| 20260503022509 | 6 | 72 | 3.2 | 3.2 | 0.00 | 0.00 | 0.00 | 74 | 1018.1 |
| 20260503022005 | 6 | 96 | 0.0 | 3.2 | 0.00 | 0.00 | 0.00 | 75 | 1018.1 |
| 20260503021004 | 7 | 102 | 0.0 | 1.6 | 0.00 | 0.00 | 0.00 | 76 | 1018.2 |
| 20260503020506 | 7 | 102 | 0.0 | 0.0 | 0.00 | 0.00 | 0.00 | 74 | 1018.2 |
| 20260503020012 | 7 | 102 | 0.0 | 0.0 | 0.00 | 0.00 | 0.00 | 75 | 1018.4 |
| 20260503015504 | 7 | 102 | 0.0 | 1.6 | 0.00 | 0.00 | 0.00 | 75 | 1018.3 |
| 20260503015008 | 7 | 102 | 0.0 | 0.0 | 0.00 | 0.00 | 0.00 | 74 | 1018.3 |
| 20260503014503 | 7 | 102 | 1.6 | 3.2 | 0.00 | 0.00 | 0.00 | 74 | 1018.3 |
| 20260503014009 | 7 | 102 | 1.6 | 4.8 | 0.00 | 0.00 | 0.00 | 73 | 1018.2 |
| 20260503013502 | 7 | 102 | 1.6 | 3.2 | 0.00 | 0.00 | 0.00 | 72 | 1018.2 |
| 20260503013009 | 7 | 102 | 1.6 | 1.6 | 0.00 | 0.00 | 0.00 | 72 | 1018.4 |
| 20260503012503 | 7 | 102 | 0.0 | 0.0 | 0.00 | 0.00 | 0.00 | 74 | 1018.4 |
| 20260503012010 | 7 | 102 | 0.0 | 0.0 | 0.00 | 0.00 | 0.00 | 73 | 1018.2 |
| 20260503011505 | 7 | 102 | 1.6 | 1.6 | 0.00 | 0.00 | 0.00 | 74 | 1018.3 |
| 20260503011003 | 7 | 102 | 0.0 | 0.0 | 0.00 | 0.00 | 0.00 | 74 | 1018.3 |
| 20260503010504 | 7 | 102 | 0.0 | 0.0 | 0.00 | 0.00 | 0.00 | 72 | 1018.4 |
| 20260503010004 | 7 | 102 | 0.0 | 0.0 | 0.00 | 0.00 | 0.00 | 73 | 1018.3 |
| 20260503005510 | 8 | 102 | 0.0 | 0.0 | 0.00 | 0.00 | 0.00 | 73 | 1018.4 |
| 20260503005003 | 8 | 102 | 0.0 | 0.0 | 0.00 | 0.00 | 0.00 | 72 | 1018.3 |